Ardabil, Iran

10:33 AM +0430 on April 24, 2017 (GMT +0430)
Ardabil

Weather History for OITL - April, 2014

Change the Weather History Date:

Monday, April 7, 2014

  Actual Average Record
Temperature  
Mean Temperature 46 °F -  
Max Temperature 68 °F - - ()
Min Temperature 23 °F - - ()
Degree Days  
Heating Degree Days 20    
Moisture  
Dew Point 31 °F    
Average Humidity 57    
Maximum Humidity 100    
Minimum Humidity 21    
Precipitation  
Precipitation 0.00 in - - ()
Sea Level Pressure  
Sea Level Pressure 30.20 in    
Wind  
Wind Speed 5 mph ()    
Max Wind Speed 18 mph    
Max Gust Speed -    
Visibility 4.2 miles    
Events Fog    
T = Trace of Precipitation, MM = Missing Value Source: Averaged Metar Reports

Daily Weather History Graph

Daily Weather History Graph

Search for Another Location

Airport or City:

Trip Planner

Search our weather history database for the weather conditions in past years. The results will help you decide how hot, cold, wet, or windy it might be!

Date:

Astronomy

Apr. 07, 2014 Rise Set
Actual Time 6:52 AM +0430 7:44 PM +0430
Civil Twilight 6:25 AM +0430 8:11 PM +0430
Nautical Twilight 5:54 AM +0430 8:43 PM +0430
Astronomical Twilight 5:21 AM +0430 9:16 PM +0430
Moon 12:29 PM +0430 (4/7) 2:04 AM +0430 (4/7)
Length of Visible Light 13h 45m
Length of Day
12h 52m
Waxing Crescent, 50% of the Moon is Illuminated
Apr 7
Waxing Crescent
Apr 7
First Quarter
Apr 15
Full
Apr 22
Last Quarter
Apr 29
New

Hourly Weather History & Observations

Time (+0430) Temp. Windchill Dew Point Humidity Pressure Visibility Wind Dir Wind Speed Gust Speed Precip Events Conditions
12:16 AM 28.4 °F 23.3 °F 28.4 °F 100% 30.33 in 5.0 mi ESE 4.6 mph - N/A   Overcast
1:24 AM 28.4 °F 21.2 °F 28.4 °F 100% 30.33 in 0.2 mi ESE 6.9 mph - N/A Fog Light Freezing Fog
4:26 AM 24.8 °F 16.9 °F 24.8 °F 100% 30.30 in 2.5 mi West 6.9 mph - N/A   Unknown
5:26 AM 24.8 °F 16.9 °F 24.8 °F 100% 30.30 in 1.9 mi West 6.9 mph - N/A   Scattered Clouds
6:21 AM 23.0 °F 17.0 °F 23.0 °F 100% 30.30 in 1.9 mi West 4.6 mph - N/A   Partly Cloudy
7:30 AM 23.0 °F - 23.0 °F 100% 30.33 in 0.3 mi Calm Calm - N/A Fog Light Freezing Fog
8:30 AM 26.6 °F 19.1 °F 24.8 °F 93% 30.33 in 0.2 mi SE 6.9 mph - N/A Fog Light Freezing Fog
9:30 AM 32.0 °F - 32.0 °F 100% 30.30 in 3.1 mi Calm Calm - N/A   Partly Cloudy
10:21 AM 39.2 °F - 35.6 °F 87% 30.30 in 3.7 mi Calm Calm - N/A Fog Fog
10:30 AM 39.2 °F - 35.6 °F 87% 30.30 in 3.7 mi Calm Calm - N/A Fog Fog
11:30 AM 46.4 °F 42.9 °F 39.2 °F 76% 30.27 in 3.7 mi WNW 6.9 mph - N/A   Unknown
12:30 PM 51.8 °F - 41.0 °F 67% 30.24 in - NW 6.9 mph - N/A   Clear
1:30 PM 59.0 °F - 41.0 °F 51% 30.21 in - Calm Calm - N/A   Clear
2:22 PM 64.4 °F - 41.0 °F 42% 30.18 in - West 9.2 mph - N/A   Clear
2:30 PM 64.4 °F - 41.0 °F 42% 30.18 in - West 9.2 mph - N/A   Clear
3:00 PM 66.2 °F - 39.2 °F 37% 30.18 in - SW 11.5 mph - N/A   Clear
3:20 PM 68.0 °F - 39.2 °F 35% 30.15 in - ESE 6.9 mph - N/A   Clear
3:30 PM 68.0 °F - 39.2 °F 35% 30.15 in - ESE 6.9 mph - N/A   Clear
4:00 PM 68.0 °F - 32.0 °F 26% 30.12 in - NNW 13.8 mph - N/A   Clear
4:30 PM 68.0 °F - 28.4 °F 23% 30.15 in 6.2 mi North 13.8 mph - N/A   Mostly Cloudy
5:00 PM 68.0 °F - 28.4 °F 23% 30.12 in 6.2 mi WNW 18.4 mph - N/A   Mostly Cloudy
5:22 PM 68.0 °F - 28.4 °F 23% 30.12 in 6.2 mi NNW 11.5 mph - N/A   Mostly Cloudy
5:30 PM 68.0 °F - 28.4 °F 23% 30.12 in 6.2 mi NNW 11.5 mph - N/A   Mostly Cloudy
6:00 PM 66.2 °F - 24.8 °F 21% 30.12 in 6.2 mi West 6.9 mph - N/A   Mostly Cloudy
6:30 PM 66.2 °F - 28.4 °F 24% 30.12 in 6.2 mi SW 4.6 mph - N/A   Mostly Cloudy
7:00 PM 64.4 °F - 26.6 °F 24% 30.12 in 6.2 mi Calm Calm - N/A   Mostly Cloudy
7:30 PM 62.6 °F - 24.8 °F 24% 30.12 in 6.2 mi Calm Calm - N/A   Mostly Cloudy
8:23 PM 57.2 °F - 26.6 °F 31% 30.12 in 6.2 mi Calm Calm - N/A   Mostly Cloudy
9:25 PM 46.4 °F 42.9 °F 28.4 °F 50% 30.12 in 6.2 mi ESE 6.9 mph - N/A   Mostly Cloudy
10:24 PM 44.6 °F - 33.8 °F 66% 30.12 in - Calm Calm - N/A   Clear
11:23 PM 44.6 °F 40.7 °F 35.6 °F 71% 30.12 in - SE 6.9 mph - N/A   Clear